Weather History for Hebron, NE

Change the Weather History Date:

Wednesday, November 6, 2013

  Actual Average Record
Temperature  
Mean Temperature 38 °F -  
Max Temperature 43 °F 53 °F 77 °F (1950)
Min Temperature 33 °F 31 °F 10 °F (1959)
Degree Days  
Heating Degree Days 27    
Moisture  
Dew Point 31 °F    
Average Humidity 81    
Maximum Humidity 90    
Minimum Humidity 64    
Precipitation  
Precipitation 0.00 in - - ()
Sea Level Pressure  
Sea Level Pressure 30.23 in    
Wind  
Wind Speed 9 mph (WNW)    
Max Wind Speed 17 mph    
Max Gust Speed 23 mph    
Visibility 10 miles    
Events      
Averages and records for this station are not official NWS values.
T = Trace of Precipitation, MM = Missing Value Source: NWS Daily Summary

Daily Weather History Graph

Daily Weather History Graph

Search for Another Location

Airport:

Trip Planner

Search our weather history database for the weather conditions in past years. The results will help you decide how hot, cold, wet, or windy it might be!

Date:

Astronomy

Nov. 06, 2013 Rise Set
Actual Time 7:05 AM CST 5:21 PM CST
Civil Twilight 6:37 AM CST 5:50 PM CST
Nautical Twilight 6:04 AM CST 6:22 PM CST
Astronomical Twilight 5:33 AM CST 6:54 PM CST
Moon 10:21 AM CST (11/6) 8:27 PM CST (11/6)
Length of Visible Light 11h 12m
Length of Day
10h 15m
Waxing Crescent, 14% of the Moon is Illuminated
Nov 6
Waxing Crescent
Nov 9
First Quarter
Nov 17
Full
Nov 25
Last Quarter
Dec 2
New

Hourly Weather History & Observations

Time (CST) Temp. Windchill Dew Point Humidity Pressure Visibility Wind Dir Wind Speed Gust Speed Precip Events Conditions
12:35 AM 36.0 °F 27.5 °F 32.2 °F 86% 30.12 in 5.0 mi NNW 12.7 mph 23.0 mph N/A   Overcast
12:55 AM 35.6 °F 26.2 °F 32.2 °F 87% 30.10 in 10.0 mi North 15.0 mph 21.9 mph N/A   Overcast
1:15 AM 35.8 °F 25.7 °F 32.0 °F 86% 30.10 in 10.0 mi North 17.3 mph - N/A   Overcast
1:55 AM 35.6 °F 28.0 °F 32.0 °F 87% 30.13 in 10.0 mi NNW 10.4 mph 16.1 mph N/A   Overcast
2:15 AM 35.8 °F 27.3 °F 32.0 °F 86% 30.13 in 10.0 mi NNW 12.7 mph 18.4 mph N/A   Overcast
2:35 AM 35.6 °F 26.6 °F 31.6 °F 85% 30.13 in 10.0 mi NNW 13.8 mph 21.9 mph N/A   Overcast
2:55 AM 35.6 °F 27.1 °F 31.5 °F 85% 30.14 in 10.0 mi North 12.7 mph 17.3 mph N/A   Overcast
3:15 AM 35.4 °F 26.4 °F 31.1 °F 84% 30.14 in 10.0 mi NNW 13.8 mph - N/A   Overcast
3:35 AM 35.1 °F 26.9 °F 31.1 °F 85% 30.14 in 10.0 mi North 11.5 mph 18.4 mph N/A   Overcast
3:55 AM 35.1 °F 26.4 °F 31.1 °F 85% 30.15 in 10.0 mi North 12.7 mph - N/A   Overcast
4:15 AM 34.9 °F 27.7 °F 31.3 °F 87% 30.16 in 10.0 mi NNW 9.2 mph - N/A   Overcast
4:35 AM 34.7 °F 26.9 °F 30.9 °F 86% 30.17 in 10.0 mi NNW 10.4 mph - N/A   Overcast
4:55 AM 34.7 °F 25.1 °F 30.9 °F 86% 30.17 in 10.0 mi NNW 15.0 mph - N/A   Overcast
5:15 AM 34.2 °F 24.0 °F 30.2 °F 85% 30.18 in 10.0 mi NNW 16.1 mph 21.9 mph N/A   Overcast
5:35 AM 34.2 °F 25.7 °F 30.2 °F 85% 30.19 in 10.0 mi NNW 11.5 mph 17.3 mph N/A   Overcast
5:55 AM 34.2 °F 26.2 °F 30.2 °F 85% 30.20 in 10.0 mi NNW 10.4 mph - N/A   Overcast
6:15 AM 34.0 °F 25.0 °F 29.8 °F 85% 30.21 in 10.0 mi NNW 12.7 mph - N/A   Overcast
6:35 AM 34.0 °F 25.0 °F 30.0 °F 85% 30.21 in 10.0 mi NNW 12.7 mph 17.3 mph N/A   Overcast
6:55 AM 34.0 °F 25.0 °F 30.0 °F 85% 30.21 in 10.0 mi NNW 12.7 mph - N/A   Overcast
7:15 AM 34.2 °F 27.5 °F 30.0 °F 85% 30.22 in 10.0 mi NNW 8.1 mph - N/A   Overcast
7:35 AM 34.3 °F 29.2 °F 30.6 °F 86% 30.23 in 10.0 mi NNW 5.8 mph - N/A   Overcast
7:55 AM 34.7 °F 29.6 °F 30.7 °F 85% 30.24 in 10.0 mi NW 5.8 mph - N/A   Overcast
8:15 AM 35.1 °F 29.3 °F 30.9 °F 85% 30.25 in 10.0 mi NW 6.9 mph - N/A   Overcast
8:35 AM 35.4 °F 29.7 °F 30.9 °F 84% 30.26 in 10.0 mi NW 6.9 mph - N/A   Overcast
8:55 AM 35.6 °F 30.7 °F 30.9 °F 83% 30.26 in 10.0 mi NNW 5.8 mph - N/A   Overcast
9:15 AM 36.1 °F 31.4 °F 31.3 °F 83% 30.27 in 10.0 mi NNW 5.8 mph - N/A   Overcast
9:35 AM 37.0 °F 32.4 °F 31.6 °F 81% 30.27 in 10.0 mi WNW 5.8 mph - N/A   Overcast
9:55 AM 37.9 °F 32.1 °F 32.0 °F 79% 30.27 in 10.0 mi WNW 8.1 mph - N/A   Mostly Cloudy
10:15 AM 38.3 °F 33.9 °F 31.8 °F 77% 30.27 in 10.0 mi NW 5.8 mph - N/A   Mostly Cloudy
10:35 AM 38.5 °F 34.1 °F 30.9 °F 74% 30.27 in 10.0 mi West 5.8 mph - N/A   Mostly Cloudy
10:55 AM 38.7 °F 35.2 °F 30.7 °F 73% 30.27 in 10.0 mi West 4.6 mph - N/A   Overcast
11:15 AM 38.8 °F 34.6 °F 30.7 °F 73% 30.27 in 10.0 mi West 5.8 mph - N/A   Overcast
11:35 AM 39.4 °F 33.2 °F 31.1 °F 72% 30.27 in 10.0 mi West 9.2 mph - N/A   Overcast
11:55 AM 39.7 °F 36.5 °F 30.6 °F 70% 30.27 in 10.0 mi West 4.6 mph - N/A   Overcast
12:15 PM 39.4 °F 35.2 °F 31.5 °F 73% 30.27 in 10.0 mi WNW 5.8 mph - N/A   Overcast
12:35 PM 39.2 °F - 30.6 °F 71% 30.26 in 10.0 mi Calm Calm - N/A   Overcast
12:55 PM 39.4 °F 33.2 °F 31.8 °F 74% 30.25 in 10.0 mi West 9.2 mph - N/A   Overcast
1:15 PM 39.2 °F 33.6 °F 31.3 °F 73% 30.25 in 10.0 mi WSW 8.1 mph - N/A   Overcast
1:35 PM 39.0 °F 33.4 °F 31.8 °F 75% 30.25 in 10.0 mi WSW 8.1 mph - N/A   Overcast
1:55 PM 38.8 °F 34.6 °F 31.6 °F 75% 30.25 in 10.0 mi West 5.8 mph - N/A   Overcast
2:15 PM 39.4 °F 36.1 °F 31.1 °F 72% 30.25 in 10.0 mi West 4.6 mph - N/A   Mostly Cloudy
2:35 PM 40.6 °F 38.6 °F 31.5 °F 70% 30.25 in 10.0 mi West 3.5 mph - N/A   Mostly Cloudy
2:55 PM 41.7 °F 38.0 °F 31.8 °F 68% 30.24 in 10.0 mi West 5.8 mph - N/A   Scattered Clouds
3:15 PM 42.4 °F 39.6 °F 32.0 °F 67% 30.24 in 10.0 mi SW 4.6 mph - N/A   Scattered Clouds
3:35 PM 42.8 °F 39.3 °F 32.0 °F 66% 30.24 in 10.0 mi West 5.8 mph - N/A   Scattered Clouds
3:55 PM 43.7 °F 41.1 °F 32.2 °F 64% 30.24 in 10.0 mi SW 4.6 mph - N/A   Clear
4:15 PM 43.7 °F 40.3 °F 32.4 °F 64% 30.24 in 10.0 mi WSW 5.8 mph - N/A   Clear
4:35 PM 43.7 °F 41.1 °F 32.4 °F 64% 30.24 in 10.0 mi WSW 4.6 mph - N/A   Clear
4:55 PM 43.0 °F - 32.2 °F 66% 30.24 in 10.0 mi Calm Calm - N/A   Clear
5:15 PM 41.7 °F 38.8 °F 32.0 °F 68% 30.24 in 10.0 mi SSW 4.6 mph - N/A   Clear
5:35 PM 39.4 °F 36.1 °F 32.4 °F 76% 30.24 in 10.0 mi South 4.6 mph - N/A   Clear
5:55 PM 37.9 °F 34.4 °F 32.5 °F 81% 30.24 in 10.0 mi South 4.6 mph - N/A   Clear
6:15 PM 37.0 °F 33.3 °F 32.2 °F 83% 30.25 in 10.0 mi SSW 4.6 mph - N/A   Clear
6:35 PM 36.5 °F 32.7 °F 32.0 °F 84% 30.25 in 10.0 mi South 4.6 mph - N/A   Clear
6:55 PM 35.8 °F 30.9 °F 32.0 °F 86% 30.25 in 10.0 mi SSW 5.8 mph - N/A   Clear
7:15 PM 36.1 °F 31.4 °F 32.0 °F 85% 30.25 in 10.0 mi South 5.8 mph - N/A   Clear
7:35 PM 35.4 °F 32.6 °F 31.8 °F 87% 30.26 in 10.0 mi South 3.5 mph - N/A   Clear
7:55 PM 35.6 °F 32.8 °F 32.0 °F 87% 30.27 in 10.0 mi SSW 3.5 mph - N/A   Clear
8:15 PM 35.2 °F 32.4 °F 31.6 °F 87% 30.27 in 10.0 mi SW 3.5 mph - N/A   Clear
8:35 PM 34.7 °F - 31.3 °F 87% 30.27 in 10.0 mi Calm Calm - N/A   Clear
8:55 PM 34.9 °F 32.0 °F 31.5 °F 87% 30.27 in 10.0 mi SW 3.5 mph - N/A   Clear
9:15 PM 35.2 °F 32.4 °F 31.6 °F 87% 30.28 in 10.0 mi WSW 3.5 mph - N/A   Clear
9:35 PM 35.6 °F 31.7 °F 32.0 °F 87% 30.27 in 10.0 mi WSW 4.6 mph - N/A   Clear
9:55 PM 35.6 °F 31.7 °F 31.8 °F 86% 30.28 in 10.0 mi SW 4.6 mph - N/A   Clear
10:15 PM 35.6 °F 30.7 °F 32.0 °F 87% 30.28 in 10.0 mi SW 5.8 mph - N/A   Clear
10:35 PM 34.9 °F 29.9 °F 31.1 °F 86% 30.29 in 10.0 mi West 5.8 mph - N/A   Clear
10:55 PM 34.0 °F 29.8 °F 31.1 °F 89% 30.30 in 10.0 mi West 4.6 mph - N/A   Clear
11:15 PM 34.0 °F - 30.9 °F 89% 30.30 in 10.0 mi Calm Calm - N/A   Clear
11:35 PM 33.8 °F 29.6 °F 31.1 °F 90% 30.30 in 10.0 mi WSW 4.6 mph - N/A   Clear
11:55 PM 34.2 °F 29.0 °F 31.3 °F 89% 30.30 in 10.0 mi WSW 5.8 mph - N/A   Clear